When you browse on this site, cookies collect data to enhance your experience and personalize the content and advertising you see.
Visit our Privacy Policy to learn more. By continuing to use the site, you agree to this use of cookies and data.
  • în România
  • Lista ţărilor
  • Pe 7 zile
  • Temperatura apei
  • Meteo pe hartă
  • Widget-uri
  • user-avatar
    Intrare

    Meteo pe oră la Connaught

    Astăzi, 25 August, Duminică

    Timp Temperatura Precipitaţii Vânt Presiune Umiditate
    00:00 +15°C° 0 mm 2 m/s 746 mmHg 97%
    01:00 +14°C° 0 mm 2 m/s 746 mmHg 97%
    02:00 +14°C° 0 mm 1 m/s 746 mmHg 98%
    03:00 +14°C° 0 mm 1 m/s 747 mmHg 97%
    04:00 +14°C° 0 mm 2 m/s 747 mmHg 97%
    05:00 +15°C° 0 mm 2 m/s 747 mmHg 97%
    06:00 +15°C° 0 mm 2 m/s 747 mmHg 95%
    07:00 +16°C° 0 mm 2 m/s 747 mmHg 94%
    08:00 +16°C° 0 mm 2 m/s 748 mmHg 93%
    09:00 +16°C° 0 mm 2 m/s 748 mmHg 92%
    10:00 +17°C° 0 mm 2 m/s 748 mmHg 90%
    11:00 +17°C° 0 mm 2 m/s 748 mmHg 89%
    12:00 +18°C° 0.1 mm 2 m/s 748 mmHg 87%
    13:00 +18°C° 0.1 mm 2 m/s 748 mmHg 85%
    14:00 +19°C° 0.1 mm 2 m/s 748 mmHg 83%
    15:00 +18°C° 0.1 mm 2 m/s 748 mmHg 85%
    16:00 +17°C° 0.1 mm 2 m/s 748 mmHg 87%
    17:00 +17°C° 0.1 mm 2 m/s 748 mmHg 88%
    18:00 +16°C° 0 mm 2 m/s 748 mmHg 90%
    19:00 +14°C° 0 mm 2 m/s 748 mmHg 92%
    20:00 +13°C° 0 mm 1 m/s 749 mmHg 93%
    21:00 +13°C° 0 mm 1 m/s 748 mmHg 94%
    22:00 +12°C° 0 mm 1 m/s 748 mmHg 94%
    23:00 +11°C° 0 mm 1 m/s 748 mmHg 95%

    Mâine, 26 August, Luni

    Timp Temperatura Precipitaţii Vânt Presiune Umiditate
    00:00 +11°C° 0 mm 1 m/s 748 mmHg 95%
    01:00 +9°C° 0 mm 2 m/s 748 mmHg 96%
    02:00 +9°C° 0 mm 2 m/s 747 mmHg 96%
    03:00 +9°C° 0 mm 2 m/s 747 mmHg 97%
    04:00 +9°C° 0 mm 2 m/s 747 mmHg 97%
    05:00 +9°C° 0 mm 2 m/s 747 mmHg 98%
    06:00 +11°C° 0 mm 3 m/s 747 mmHg 94%
    07:00 +12°C° 0 mm 3 m/s 747 mmHg 90%
    08:00 +14°C° 0 mm 4 m/s 747 mmHg 86%
    09:00 +14°C° 0 mm 4 m/s 747 mmHg 85%
    10:00 +15°C° 0 mm 4 m/s 747 mmHg 84%
    11:00 +15°C° 0 mm 5 m/s 747 mmHg 83%
    12:00 +15°C° 0.1 mm 5 m/s 747 mmHg 85%
    13:00 +15°C° 0.1 mm 4 m/s 746 mmHg 86%
    14:00 +14°C° 0.1 mm 4 m/s 746 mmHg 88%
    15:00 +14°C° 0 mm 4 m/s 746 mmHg 89%
    16:00 +14°C° 0 mm 4 m/s 746 mmHg 90%
    17:00 +14°C° 0 mm 4 m/s 746 mmHg 91%
    18:00 +13°C° 0.4 mm 4 m/s 746 mmHg 92%
    19:00 +13°C° 0.4 mm 3 m/s 746 mmHg 94%
    20:00 +13°C° 0.4 mm 3 m/s 746 mmHg 96%
    21:00 +13°C° 0.6 mm 3 m/s 746 mmHg 96%
    22:00 +13°C° 0.6 mm 3 m/s 746 mmHg 97%
    23:00 +13°C° 0.6 mm 3 m/s 745 mmHg 97%

    Poimâine, 27 August, Marţi

    Timp Temperatura Precipitaţii Vânt Presiune Umiditate
    00:00 +13°C° 0.6 mm 3 m/s 745 mmHg 97%
    01:00 +13°C° 0.6 mm 3 m/s 745 mmHg 97%
    02:00 +13°C° 0.6 mm 3 m/s 745 mmHg 97%
    03:00 +13°C° 0.2 mm 3 m/s 745 mmHg 97%
    04:00 +13°C° 0.2 mm 3 m/s 744 mmHg 97%
    05:00 +13°C° 0.2 mm 3 m/s 744 mmHg 97%
    06:00 +13°C° 0.1 mm 3 m/s 744 mmHg 96%
    07:00 +13°C° 0.1 mm 4 m/s 744 mmHg 95%
    08:00 +13°C° 0.1 mm 4 m/s 744 mmHg 94%
    09:00 +13°C° 0.2 mm 4 m/s 744 mmHg 95%
    10:00 +13°C° 0.2 mm 4 m/s 744 mmHg 95%
    11:00 +14°C° 0.2 mm 4 m/s 744 mmHg 95%
    12:00 +14°C° 0.1 mm 4 m/s 744 mmHg 94%
    13:00 +16°C° 0.1 mm 3 m/s 744 mmHg 94%
    14:00 +16°C° 0.1 mm 3 m/s 743 mmHg 93%
    15:00 +16°C° 0.5 mm 3 m/s 743 mmHg 94%
    16:00 +16°C° 0.5 mm 3 m/s 743 mmHg 95%
    17:00 +14°C° 0.5 mm 3 m/s 743 mmHg 96%
    18:00 +14°C° 1.7 mm 3 m/s 743 mmHg 96%
    19:00 +13°C° 1.7 mm 3 m/s 743 mmHg 97%
    20:00 +13°C° 1.7 mm 3 m/s 743 mmHg 98%
    21:00 +13°C° 0.9 mm 3 m/s 743 mmHg 98%
    22:00 +13°C° 0.9 mm 3 m/s 743 mmHg 97%
    23:00 +13°C° 0.9 mm 2 m/s 743 mmHg 97%

    28 August, Miercuri

    Timp Temperatura Precipitaţii Vânt Presiune Umiditate
    00:00 +13°C° 0.4 mm 2 m/s 742 mmHg 97%
    01:00 +12°C° 0.4 mm 3 m/s 742 mmHg 97%
    02:00 +11°C° 0.4 mm 3 m/s 742 mmHg 96%
    03:00 +12°C° 0.1 mm 2 m/s 742 mmHg 96%
    04:00 +10°C° 0.1 mm 2 m/s 742 mmHg 96%
    05:00 +10°C° 0.1 mm 2 m/s 742 mmHg 95%
    06:00 +10°C° 0 mm 3 m/s 742 mmHg 92%
    07:00 +11°C° 0 mm 3 m/s 742 mmHg 88%
    08:00 +12°C° 0 mm 3 m/s 743 mmHg 84%
    09:00 +13°C° 0 mm 3 m/s 743 mmHg 78%
    10:00 +13°C° 0 mm 3 m/s 743 mmHg 73%
    11:00 +14°C° 0 mm 3 m/s 743 mmHg 67%
    12:00 +14°C° 0 mm 3 m/s 743 mmHg 66%
    13:00 +16°C° 0 mm 3 m/s 743 mmHg 66%
    14:00 +16°C° 0 mm 3 m/s 742 mmHg 65%
    15:00 +14°C° 0.1 mm 3 m/s 742 mmHg 70%
    16:00 +15°C° 0.1 mm 2 m/s 743 mmHg 74%
    17:00 +14°C° 0.1 mm 2 m/s 743 mmHg 78%
    18:00 +13°C° 0 mm 2 m/s 743 mmHg 83%
    19:00 +10°C° 0 mm 2 m/s 743 mmHg 88%
    20:00 +9°C° 0 mm 3 m/s 743 mmHg 93%
    21:00 +9°C° 0 mm 2 m/s 743 mmHg 93%
    22:00 +8°C° 0 mm 2 m/s 744 mmHg 93%
    23:00 +8°C° 0 mm 2 m/s 744 mmHg 94%

    29 August, Joi

    Timp Temperatura Precipitaţii Vânt Presiune Umiditate
    00:00 +8°C° 0 mm 3 m/s 743 mmHg 93%
    01:00 +8°C° 0 mm 3 m/s 743 mmHg 91%
    02:00 +9°C° 0 mm 3 m/s 743 mmHg 90%
    03:00 +10°C° 0.1 mm 4 m/s 743 mmHg 90%
    04:00 +10°C° 0.1 mm 5 m/s 743 mmHg 90%
    05:00 +10°C° 0.1 mm 5 m/s 742 mmHg 90%
    06:00 +11°C° 0.3 mm 6 m/s 743 mmHg 90%
    07:00 +13°C° 0.3 mm 6 m/s 743 mmHg 89%
    08:00 +14°C° 0.3 mm 7 m/s 743 mmHg 89%
    09:00 +14°C° 0.4 mm 7 m/s 743 mmHg 88%
    10:00 +13°C° 0.4 mm 8 m/s 743 mmHg 88%
    11:00 +15°C° 0.4 mm 8 m/s 743 mmHg 87%
    12:00 +15°C° 0.4 mm 8 m/s 743 mmHg 86%
    13:00 +15°C° 0.4 mm 8 m/s 743 mmHg 85%
    14:00 +16°C° 0.4 mm 8 m/s 743 mmHg 83%
    15:00 +15°C° 0.2 mm 7 m/s 743 mmHg 85%
    16:00 +14°C° 0.2 mm 7 m/s 743 mmHg 87%
    17:00 +14°C° 0.2 mm 6 m/s 744 mmHg 89%
    18:00 +14°C° 0.2 mm 6 m/s 744 mmHg 90%
    19:00 +13°C° 0.2 mm 5 m/s 744 mmHg 92%
    20:00 +13°C° 0.2 mm 5 m/s 744 mmHg 93%
    21:00 +13°C° 0.2 mm 5 m/s 744 mmHg 93%
    22:00 +13°C° 0.2 mm 5 m/s 745 mmHg 93%
    23:00 +12°C° 0.2 mm 4 m/s 745 mmHg 92%

    30 August, Vineri

    Timp Temperatura Precipitaţii Vânt Presiune Umiditate
    00:00 +12°C° 0.1 mm 4 m/s 745 mmHg 93%
    01:00 +12°C° 0.1 mm 4 m/s 745 mmHg 93%
    02:00 +12°C° 0.1 mm 4 m/s 745 mmHg 94%
    03:00 +11°C° 0.1 mm 3 m/s 745 mmHg 94%
    04:00 +11°C° 0.1 mm 3 m/s 745 mmHg 95%
    05:00 +11°C° 0.1 mm 3 m/s 745 mmHg 95%
    06:00 +12°C° 0 mm 3 m/s 745 mmHg 92%
    07:00 +13°C° 0 mm 4 m/s 745 mmHg 90%
    08:00 +14°C° 0 mm 5 m/s 746 mmHg 87%
    09:00 +14°C° 0.5 mm 5 m/s 745 mmHg 89%
    10:00 +13°C° 0.5 mm 5 m/s 745 mmHg 92%
    11:00 +13°C° 0.5 mm 5 m/s 745 mmHg 94%
    12:00 +13°C° 0.4 mm 5 m/s 744 mmHg 93%
    13:00 +13°C° 0.4 mm 5 m/s 743 mmHg 93%
    14:00 +13°C° 0.4 mm 5 m/s 742 mmHg 92%
    15:00 +13°C° 1.6 mm 6 m/s 741 mmHg 94%
    16:00 +13°C° 1.6 mm 6 m/s 740 mmHg 95%
    17:00 +12°C° 1.6 mm 7 m/s 739 mmHg 96%
    18:00 +12°C° 0.4 mm 7 m/s 739 mmHg 95%
    19:00 +14°C° 0.4 mm 7 m/s 739 mmHg 95%
    20:00 +14°C° 0.4 mm 7 m/s 739 mmHg 94%
    21:00 +13°C° 0.1 mm 6 m/s 740 mmHg 93%
    22:00 +11°C° 0.1 mm 6 m/s 740 mmHg 92%
    23:00 +10°C° 0.1 mm 6 m/s 741 mmHg 91%
    Arată mai mult